Weather in Tsalka

Georgia     41°35′49″N   44°05′27″E
temp.,
°C
wind,
m/s
gust,
m/s
humid.,
%
clouds,
%
prec.,
mm/h
press.,
hPa
HPBL,
m
17 october, sun
sun1701:00+7wsw11878 0.0 101710
04:00+6w11820 0.0 101610
07:00+6w11790 0.0 101610
10:00+11e21660 0.0 1014249
13:00+14e33580 0.3 1012674
16:00+14ese336156 1.0 1010618
19:00+8s009031 1.6 101310
22:00+7sw119537 3.1 101413
18 october, mon
mon1801:00+6wnw129563 3.2 1015115
04:00+6w339024 3.6 101550
07:00+5w328638 0.1 101526
10:00+9wnw237072 0.1 1014619
13:00+12nne1260100 0.9 10131077
16:00+12nnw236099 4.1 1012709
19:00+6nw238555 0.6 101668
22:00+6w228659 0.6 101738
19 october, tue
tue1901:00+4w33857 0.0 101835
04:00+4wsw338610 0.0 101853
07:00+4w338693 0.0 101862
10:00+8wnw127070 0.1 1018567
13:00+7wnw4579100 1.1 1018582
16:00+9nw346745 2.1 1016816
19:00+4w228314 0.1 101934
22:00+3w338476 0.1 102058
20 october, wed
wed2001:00+3w238423 0.0 102088
04:00+3w249075 0.3 1020204
07:00+2w358534 0.1 1021219
10:00+5w615609 0.2 10201400
13:00+7wnw6125749 0.1 10191703
16:00+7wnw611549 0.1 10191526
19:00+2w357847 0.0 1024111
22:00+1w3383100 0.0 102677
21 october, thu
thu2101:00+1w2281100 0.0 102750
04:00−1w22826 0.0 102832
07:00−1wsw22763 0.0 102814
10:00+3e216198 0.0 1028467
13:00+6e325969 0.0 1026822
16:00+5ese327665 0.0 1027557
19:00+1se228926 0.0 1029136
22:000sse228922 0.0 103014